GFSSE_700_rhum_189.txt.gz
RH
18 17 17 19 18 35 35 29 28 42 53 58 65 66 63 57 50 47 47 47 51 50 47 44 45 43 41 40 44 41 29 20 12 14 17 15 9 10 12 10 10 19 24
17 17 17 17 19 29 41 39 37 38 46 47 54 59 63 68 66 61 54 50 50 54 56 54 62 54 50 47 42 45 46 34 25 13 16 18 12 9 10 10 10 24 29
16 16 16 16 17 19 42 42 39 39 29 32 41 43 41 45 58 70 67 63 57 55 56 58 60 65 53 53 53 47 45 50 42 30 15 16 17 13 9 10 10 13 12
16 16 16 17 17 18 19 19 22 41 42 38 40 46 40 36 48 57 64 67 67 64 61 61 63 61 57 55 55 58 53 47 52 50 38 21 14 16 15 11 9 9 10
15 15 16 16 17 17 18 19 20 20 25 31 37 42 46 42 43 52 59 67 76 76 72 66 67 70 68 65 62 63 61 58 53 52 54 47 32 20 14 14 13 11 9
14 14 14 15 16 17 18 20 20 20 20 19 19 19 19 23 38 44 58 65 67 71 74 77 73 71 74 75 71 69 69 67 62 59 53 52 53 48 38 26 16 12 10
14 14 15 16 17 19 20 20 21 22 24 24 23 21 20 19 19 21 43 56 65 72 75 80 82 77 80 79 82 81 78 73 74 67 64 59 55 54 54 51 46 35 24
15 17 18 19 20 21 22 22 23 24 24 25 25 26 25 23 21 20 20 26 72 75 77 88 87 80 76 86 83 79 85 81 77 74 78 70 63 61 60 59 58 55 48
17 17 16 16 16 15 14 15 15 16 17 20 22 25 26 28 27 24 22 21 32 34 49 78 84 83 75 76 86 84 86 85 81 87 77 82 80 73 68 66 66 66 64
10 9 8 8 8 8 8 8 8 8 9 10 13 16 20 23 26 26 25 25 22 21 22 23 30 46 52 61 57 79 82 86 79 89 93 85 81 77 75 75 74 71 74
8 10 10 11 10 10 10 10 10 11 11 10 10 10 11 14 17 21 23 19 22 26 24 21 20 19 20 33 38 28 64 76 82 84 90 94 88 84 83 83 80 78 75
9 7 6 6 8 10 11 12 12 12 12 12 11 11 11 10 9 12 15 16 14 15 21 25 26 24 22 21 20 20 34 58 60 59 78 84 84 74 70 66 65 72 68
6 8 14 19 20 19 18 16 13 11 12 12 13 14 13 12 12 11 12 13 13 11 11 12 13 16 20 23 24 24 24 24 23 23 25 36 38 35 49 49 53 60 63
16 19 19 19 14 11 8 7 6 6 7 8 8 9 11 14 16 14 13 13 13 11 10 10 9 9 8 8 8 8 8 8 9 10 11 12 13 14 21 28 39 56 64
18 20 18 14 11 8 6 6 7 8 8 10 11 12 12 14 15 18 18 14 14 12 12 11 10 9 9 9 9 9 9 9 10 10 10 10 10 10 10 10 11 13 29
18 14 11 14 13 9 8 8 9 10 12 13 12 11 12 16 20 24 27 19 15 14 12 12 12 12 11 11 12 11 12 12 12 12 12 12 12 13 13 13 12 11 12
5 5 10 20 20 19 19 18 18 15 14 16 18 20 19 23 28 33 36 25 18 16 16 14 14 14 14 13 13 13 12 12 14 16 16 16 17 18 18 19 18 15 13
4 5 11 20 24 26 28 30 30 30 26 24 26 31 38 27 33 38 33 31 24 19 19 17 15 15 15 15 14 16 19 19 19 19 15 12 12 13 19 23 23 23 24
7 6 8 11 12 12 11 14 22 33 39 38 38 41 49 43 57 56 50 45 39 24 21 19 19 16 17 17 20 21 20 19 15 10 15 19 21 23 23 24 25 26 27
6 5 5 5 5 5 6 6 6 10 24 36 38 37 41 48 50 37 25 24 29 34 30 23 26 21 20 24 21 20 18 16 10 13 11 11 13 18 22 25 26 28 28
5 4 5 7 8 8 9 9 8 8 9 20 30 32 32 38 36 27 20 17 20 27 32 31 28 28 24 22 19 19 17 14 10 13 12 10 10 12 17 20 21 22 24
5 10 16 20 25 27 24 15 12 9 8 9 18 26 26 24 19 16 17 16 13 14 20 23 24 20 18 16 18 18 19 13 12 10 10 10 10 10 11 14 17 19 19
11 20 40 46 50 49 48 51 41 15 8 7 8 11 20 21 12 8 10 13 13 9 9 10 11 12 14 16 20 18 16 12 11 11 10 10 9 9 10 9 9 13 17
15 28 34 32 29 26 22 23 47 56 22 8 8 8 8 10 12 8 7 7 10 10 7 7 9 10 10 15 18 17 12 11 12 12 11 10 9 8 8 7 8 9 10
30 23 26 32 33 30 19 20 27 51 60 36 13 10 8 7 7 7 6 5 6 7 8 7 7 8 8 10 13 12 11 12 12 12 12 11 9 9 8 9 8 8 8
24 31 39 26 17 20 28 28 34 46 58 63 55 24 13 11 9 8 5 5 5 5 6 7 7 7 7 8 9 10 11 11 12 12 11 12 11 12 11 10 9 9 8

GFSSE_700_rhum_192.txt.gz
RH
16 16 18 27 19 49 28 34 34 47 45 48 51 57 62 66 65 59 54 49 49 49 49 49 48 46 43 44 44 49 34 22 14 14 17 15 9 11 29 10 12 24 23
16 16 16 17 17 21 54 49 44 41 38 43 46 50 46 45 51 61 63 61 57 53 52 53 56 65 52 50 48 45 50 40 26 16 16 18 12 10 21 11 15 40 32
16 15 16 16 16 17 21 34 38 36 44 42 36 36 50 52 53 58 59 62 64 64 59 58 58 61 60 52 52 52 47 50 48 31 18 16 17 12 10 10 13 22 27
15 15 15 15 15 16 17 18 19 19 23 41 58 53 52 52 43 48 54 63 67 67 68 67 64 65 64 58 56 56 56 52 49 53 40 24 15 15 15 12 10 10 11
16 15 15 15 15 16 16 17 18 19 19 20 21 21 25 33 45 47 54 60 66 70 72 76 75 70 71 69 66 64 64 60 58 51 52 51 36 24 16 14 13 12 11
14 14 14 14 15 17 18 19 20 21 21 22 22 21 20 20 20 20 30 46 59 67 74 76 80 81 77 78 78 76 71 72 67 62 58 52 54 50 42 33 24 16 12
14 14 16 17 17 18 18 19 19 20 21 22 22 23 23 23 22 20 20 21 35 62 64 83 85 93 90 88 81 81 84 82 78 76 67 64 58 55 55 53 48 41 32
15 16 17 16 14 13 11 11 12 12 14 16 18 20 22 24 25 25 23 21 20 23 30 65 81 89 94 94 92 91 86 81 83 84 78 76 69 63 60 59 58 58 54
15 13 10 9 9 9 9 9 10 10 9 9 10 11 13 16 19 22 26 26 25 22 21 31 54 71 92 93 89 94 99 88 82 80 86 85 81 79 73 68 65 64 66
8 8 9 10 10 10 10 9 9 9 9 10 10 10 10 10 10 10 13 18 24 25 25 23 22 25 36 67 77 80 76 88 86 82 78 86 91 84 84 80 79 78 78
9 10 8 7 7 8 10 13 15 16 16 15 14 13 13 12 12 11 10 10 12 18 22 21 25 25 22 22 24 29 38 55 54 84 85 86 89 90 90 89 86 81 73
7 6 6 11 17 19 18 15 12 9 7 6 6 7 7 9 11 13 13 13 11 11 15 17 15 20 26 25 22 21 25 35 21 36 64 72 73 75 83 84 76 73 69
7 11 16 18 19 16 12 9 8 7 6 7 7 8 9 9 10 10 11 13 15 13 13 14 14 12 14 17 23 25 25 24 24 22 29 33 32 39 60 52 46 59 62
15 16 17 16 13 11 10 10 9 9 10 10 10 11 12 13 12 12 13 15 15 16 15 14 13 11 10 10 10 11 13 16 18 21 22 22 22 22 24 25 27 47 63
16 14 10 7 8 11 14 15 15 18 19 18 15 14 15 17 18 18 17 17 23 22 19 16 13 12 10 10 10 9 8 8 8 8 8 8 8 8 8 9 9 10 13
11 5 4 5 6 15 21 22 22 24 26 27 25 22 23 23 22 24 24 26 34 35 25 19 15 13 12 11 11 11 11 11 11 11 11 11 12 12 12 12 12 12 12
4 4 6 6 8 16 20 19 16 19 26 30 34 35 32 31 33 33 30 32 42 38 28 23 18 14 15 14 14 13 13 14 14 14 13 13 13 14 14 16 16 16 15
4 6 6 4 5 5 6 5 5 5 8 20 30 35 36 38 40 43 46 47 41 47 43 33 26 18 18 16 16 16 15 15 15 17 18 19 18 15 13 13 14 17 21
6 6 5 4 4 4 5 6 7 6 5 6 19 28 34 34 38 41 36 26 22 22 35 40 33 22 22 19 18 19 19 21 20 20 18 13 12 17 16 18 22 24 23
7 6 4 5 7 8 10 11 11 10 8 6 6 18 28 29 27 24 20 19 18 17 19 29 33 30 29 26 23 22 23 20 20 18 12 12 13 11 12 15 19 22 26
10 6 6 10 22 32 40 42 43 41 19 9 6 6 12 22 24 17 10 12 15 15 12 19 27 31 29 27 23 22 19 20 18 16 11 12 13 10 10 10 14 18 20
13 9 11 24 30 28 26 21 18 23 46 38 11 7 7 7 11 17 9 9 9 13 12 10 12 18 23 20 18 16 19 20 19 14 12 11 11 10 9 9 11 11 14
19 17 17 25 26 25 27 26 19 19 26 47 50 16 8 8 6 7 9 8 7 9 12 9 8 8 10 14 14 16 19 19 16 14 12 12 11 10 10 8 9 8 8
31 32 31 34 30 21 17 21 32 29 30 39 56 56 28 11 8 6 6 6 5 6 9 9 8 7 9 10 12 16 18 17 14 12 12 12 12 11 10 8 8 7 6
24 24 26 35 38 27 30 41 40 38 38 50 55 60 60 37 14 11 8 6 5 5 5 6 7 8 8 8 8 9 12 13 12 13 13 13 13 12 11 10 8 8 7
22 35 40 38 36 45 44 40 37 37 42 49 58 62 64 63 47 16 12 10 6 5 5 5 6 6 8 8 7 8 9 10 11 11 11 13 14 14 13 11 9 8 8

GFSSE_700_rhum_198.txt.gz
RH
14 14 15 15 15 18 21 45 44 52 43 36 38 41 47 56 55 54 49 46 47 58 62 58 53 53 57 60 53 52 45 47 36 21 14 14 11 10 11 13 14 27 24
12 13 13 13 14 13 13 15 17 24 34 36 25 43 68 64 54 65 61 54 59 63 62 64 64 58 58 67 66 56 57 48 48 42 23 15 15 12 27 34 15 76 43
11 11 12 12 12 12 12 13 14 15 16 16 17 19 26 44 56 56 56 60 56 54 61 62 66 67 63 63 69 67 59 60 54 50 47 26 15 15 11 11 13 24 27
12 11 11 11 12 12 14 15 15 16 17 18 19 19 19 19 19 19 20 22 34 40 47 60 66 64 70 71 66 71 68 67 65 59 50 50 33 18 15 14 11 10 11
13 12 11 12 13 14 15 15 16 17 17 17 18 19 20 20 21 22 22 21 19 18 20 31 50 58 66 73 74 73 76 75 73 70 62 53 51 40 28 18 15 14 12
10 11 12 14 14 12 12 12 12 10 10 11 11 12 12 13 13 15 16 18 21 22 22 20 18 22 57 71 76 76 77 79 84 79 75 65 59 54 54 45 36 28 22
10 12 14 12 9 8 8 9 9 9 9 9 9 9 9 9 9 9 10 10 11 14 17 21 23 21 20 38 66 81 81 82 84 92 86 80 70 66 59 56 56 54 49
12 11 9 7 8 9 8 7 7 7 8 9 11 12 12 12 12 12 11 11 11 11 11 14 17 23 25 22 22 54 75 88 88 86 88 87 80 78 74 68 62 60 60
11 7 6 8 9 7 6 6 10 14 16 15 12 10 9 7 7 6 6 7 8 9 11 11 11 13 21 27 24 24 77 83 95 85 88 86 82 88 83 82 79 73 68
7 7 8 7 5 6 9 15 15 15 11 8 8 8 8 9 9 8 8 8 8 8 8 8 9 11 12 18 26 27 35 61 90 100 85 91 90 89 92 90 84 84 82
7 8 6 6 8 13 13 10 10 8 8 8 10 12 14 14 13 12 10 9 10 11 12 13 13 12 12 13 18 24 28 29 32 53 86 80 78 86 94 89 92 90 87
8 6 6 11 14 13 9 6 5 7 9 12 15 16 16 17 15 12 11 12 13 12 12 12 13 14 15 14 14 19 21 28 29 27 27 36 51 56 79 96 96 91 92
7 7 10 14 12 7 4 5 6 9 13 15 15 13 16 18 15 14 13 12 11 11 11 12 13 16 19 18 19 17 18 18 28 28 25 20 47 41 47 66 88 84 75
7 9 13 12 4 4 5 6 8 8 8 7 6 6 12 19 18 17 15 14 12 12 14 15 18 21 27 27 23 18 17 15 16 24 28 26 22 24 23 28 42 51 56
8 13 12 5 4 5 5 4 5 4 4 4 4 4 5 12 23 21 19 18 19 22 21 24 31 32 33 34 27 21 17 14 13 14 16 22 24 24 25 25 24 26 25
10 14 7 4 4 5 4 3 3 3 4 6 6 6 5 5 18 25 24 20 18 19 20 24 23 36 31 30 29 25 20 15 13 12 12 11 11 12 11 12 12 11 10
13 11 5 5 5 4 3 3 4 5 8 11 14 11 8 5 5 18 26 25 18 14 18 21 20 33 29 26 26 26 22 19 16 14 14 12 10 10 10 10 10 10 11
14 9 6 6 6 4 5 6 11 22 28 28 29 33 30 13 6 5 7 16 20 11 15 19 18 29 29 25 24 27 24 22 19 18 18 17 16 15 14 14 14 13 14
13 10 7 7 6 6 10 20 27 26 21 20 22 24 31 39 20 7 6 5 13 10 11 18 18 24 27 26 24 25 25 23 21 21 21 18 18 18 19 18 19 15 14
14 12 8 10 9 11 17 23 22 21 22 30 37 33 32 37 46 19 8 5 5 8 8 17 16 18 24 26 26 23 24 24 22 22 23 22 21 21 21 14 12 13 12
17 11 10 15 18 21 23 26 26 22 19 37 39 36 36 39 50 51 16 8 5 5 6 12 15 11 16 22 24 24 24 22 22 22 20 21 22 18 12 12 14 12 11
18 11 16 27 29 30 30 31 36 31 32 41 38 37 38 44 52 56 46 14 9 6 4 8 13 11 9 12 17 19 19 18 20 19 21 21 19 14 12 12 12 11 10
18 12 21 26 24 29 38 37 32 38 41 38 32 30 31 41 52 57 58 41 12 9 5 4 10 11 9 8 10 13 16 16 18 20 21 20 17 14 13 12 12 11 10
17 14 22 23 30 38 40 41 44 44 44 41 35 31 37 44 52 57 60 60 36 11 10 5 4 6 7 9 8 9 10 12 14 18 18 17 16 15 13 12 11 11 11
20 13 19 21 38 43 42 45 46 46 44 39 32 28 34 44 51 55 60 60 59 30 11 10 6 5 5 5 7 8 8 9 10 11 13 16 16 14 13 12 12 12 11
22 14 18 25 36 42 45 45 48 48 43 34 24 22 30 39 47 53 54 55 58 58 32 12 11 8 6 6 6 6 7 8 8 8 9 10 10 11 11 11 11 11 12

GFSSE_700_rhum_201.txt.gz
RH
12 12 12 11 11 12 12 12 14 16 21 24 33 42 40 61 63 46 61 61 56 55 56 54 57 58 55 58 64 54 49 44 46 38 20 15 13 10 9 10 11 13 15
12 11 11 10 10 11 11 12 13 14 16 17 17 17 19 31 30 62 62 58 64 68 62 64 61 61 60 59 60 69 57 51 50 47 42 21 16 12 12 14 19 13 24
11 11 10 10 11 11 12 14 14 15 16 17 18 18 19 19 19 19 20 20 21 24 32 46 56 66 69 67 64 63 69 62 56 54 48 44 24 16 13 10 11 13 12
10 10 10 10 11 13 14 14 14 14 13 14 15 16 17 18 20 20 20 20 20 20 20 20 26 49 58 65 70 72 68 69 66 63 58 50 47 28 17 14 12 10 10
10 10 10 12 13 13 12 10 9 10 10 10 10 10 11 11 11 11 12 12 14 16 18 21 21 20 24 34 59 71 76 74 72 73 67 59 52 52 38 23 17 14 13
10 10 12 13 11 9 8 8 9 9 9 9 8 8 8 8 8 9 9 9 9 10 11 12 15 20 22 21 34 62 72 80 80 79 80 70 60 56 52 49 40 33 27
10 12 12 9 7 7 8 8 7 6 7 8 10 11 11 11 11 11 11 11 10 11 10 10 10 12 17 24 24 22 45 68 88 88 82 83 75 69 61 56 54 53 50
10 11 8 7 8 8 6 6 7 10 13 14 13 11 9 8 8 7 7 6 6 6 7 8 9 10 11 12 18 26 26 32 65 92 92 81 83 80 76 65 63 59 58
10 8 7 8 7 6 6 9 12 13 13 11 7 6 7 8 9 10 10 10 9 8 8 7 7 7 8 9 11 13 23 29 28 57 95 89 86 87 83 80 79 72 67
9 7 7 6 5 6 10 12 10 8 7 6 7 7 9 12 12 12 12 10 10 8 8 10 11 11 11 12 11 11 14 24 29 46 92 96 92 88 88 89 89 85 84
8 7 7 6 6 8 9 7 5 4 4 6 8 11 14 13 11 10 11 12 11 11 11 10 11 11 11 12 13 14 13 16 27 33 86 100 99 95 98 99 94 92 91
7 7 6 6 8 11 8 3 3 4 5 6 9 10 8 6 8 12 15 14 12 11 10 10 9 9 9 10 12 15 16 17 25 28 40 57 95 97 91 89 98 95 94
7 7 6 7 11 10 4 4 4 4 6 7 5 5 4 4 6 13 17 17 15 13 13 10 10 11 12 14 16 22 24 20 22 25 31 33 39 71 90 86 84 100 99
7 7 7 10 12 5 4 4 4 4 4 4 3 4 5 4 4 5 16 20 19 16 16 16 15 17 18 19 24 30 32 24 21 21 27 31 29 37 57 58 69 73 89
7 7 8 12 9 4 4 4 4 3 3 4 6 7 8 7 5 4 9 20 23 22 16 18 19 20 20 23 30 32 30 25 21 18 19 23 28 28 34 35 48 42 45
8 8 10 12 7 4 5 4 3 4 5 11 19 25 28 26 16 7 5 7 13 20 15 17 21 21 22 23 26 27 28 23 20 17 15 15 18 21 24 26 26 25 24
8 9 11 10 7 5 5 4 4 6 18 25 24 22 24 30 34 28 9 6 5 8 14 14 21 21 23 20 21 23 22 22 20 19 15 12 12 12 12 12 13 14 13
9 10 12 11 9 6 6 5 8 18 22 21 24 32 35 33 33 38 32 9 7 5 10 10 21 20 22 18 18 21 22 22 21 22 19 16 15 15 15 14 13 12 12
10 12 13 12 9 8 8 9 15 18 20 21 22 35 38 36 35 34 43 28 9 4 6 7 20 19 20 24 21 17 22 24 24 22 22 19 20 20 19 18 17 17 15
12 14 14 13 10 13 16 20 24 27 30 30 24 37 38 37 37 40 47 48 17 7 5 5 16 18 18 20 25 23 19 22 24 22 22 22 21 22 21 21 21 20 15
15 16 17 12 15 26 29 31 31 31 34 29 36 39 36 34 34 36 49 52 44 12 7 4 10 17 13 16 20 22 23 21 21 21 22 22 21 23 24 18 13 13 16
17 19 20 13 24 26 26 29 35 36 34 40 42 38 33 31 33 39 52 56 57 33 11 6 5 13 14 10 14 17 18 18 19 20 20 21 22 21 17 14 13 13 12
19 23 18 14 22 23 34 39 40 42 43 43 43 41 38 32 36 44 52 57 59 58 22 10 6 5 8 10 9 13 16 17 18 19 20 21 21 19 15 14 13 12 12
26 25 18 13 17 20 36 41 43 43 45 46 44 39 34 29 28 40 50 55 58 59 54 15 10 6 5 6 8 9 11 13 14 17 19 19 19 17 16 14 14 14 13
28 27 20 14 17 23 34 40 45 44 45 46 43 37 27 21 29 42 48 53 55 56 58 49 14 10 8 6 6 6 8 9 10 10 11 13 17 17 16 15 13 13 13
30 30 24 16 18 28 38 46 49 47 49 48 43 39 20 22 30 40 46 51 52 54 57 59 54 30 12 10 7 6 6 7 8 9 8 8 9 10 11 11 11 12 11

GFSSE_700_rhum_207.txt.gz
RH
9 9 10 10 10 10 11 12 13 14 14 15 16 17 17 18 23 41 39 46 55 49 46 54 53 47 58 61 61 61 59 63 57 48 45 44 26 15 11 10 10 10 10
8 8 10 9 9 10 12 12 13 13 13 13 14 14 16 17 18 19 19 19 19 19 21 35 45 49 48 47 56 66 65 64 64 63 53 47 45 28 16 12 10 10 10
8 8 9 9 10 11 12 11 10 9 9 10 10 11 11 11 12 13 14 15 15 15 16 17 18 19 28 52 59 57 65 68 68 64 64 60 51 46 31 19 14 11 11
8 9 9 10 10 10 9 8 7 8 8 8 8 8 8 8 8 9 9 9 9 9 9 10 11 12 14 19 32 62 54 49 67 72 72 67 63 54 48 33 19 14 24
9 9 9 10 9 8 7 7 8 8 7 6 6 7 7 8 8 9 9 9 9 9 9 9 9 9 9 10 13 17 37 65 47 64 75 78 72 66 56 48 34 20 14
8 8 9 9 8 6 7 7 7 6 6 7 9 11 12 12 11 11 9 8 8 8 8 7 7 7 8 10 10 10 12 18 53 64 66 78 83 77 68 55 49 47 24
8 8 9 8 7 7 7 7 6 6 8 10 9 10 9 8 6 6 6 7 8 9 8 8 8 8 8 7 7 8 9 11 13 32 55 56 69 87 82 69 57 51 41
9 9 9 8 7 7 7 6 6 8 10 8 5 5 5 5 5 6 7 9 9 8 8 8 9 8 8 8 8 8 8 8 8 11 19 30 49 75 86 87 72 60 54
9 10 9 8 8 8 7 6 7 10 10 6 4 4 4 4 6 7 8 8 6 6 8 10 10 10 10 10 9 9 10 10 10 10 10 17 31 60 74 93 89 79 64
9 9 8 8 8 8 7 7 10 12 8 4 4 4 4 5 6 7 6 4 6 9 12 12 12 11 10 10 9 8 8 8 8 9 10 11 16 34 79 91 98 93 83
9 9 8 8 8 7 7 9 12 10 4 4 4 4 4 5 5 4 3 4 4 7 12 15 15 14 14 12 10 8 8 9 10 11 11 11 13 21 67 81 96 100 96
9 9 8 8 8 7 8 9 11 6 4 4 4 4 4 3 4 5 6 6 6 4 7 13 17 18 15 14 9 8 10 8 9 10 13 16 15 16 35 92 100 96 100
10 9 9 8 8 7 8 9 9 5 4 4 4 4 3 5 8 14 20 21 18 13 7 6 11 17 16 15 10 10 9 13 14 15 15 18 22 18 21 52 64 98 99
10 10 9 9 8 8 8 9 8 6 5 4 4 3 6 15 25 28 30 31 32 31 23 10 6 7 15 15 9 11 13 14 14 16 19 23 28 29 24 33 55 98 99
10 10 10 9 9 9 10 10 9 7 5 4 4 6 19 25 25 28 32 33 34 35 34 23 9 5 12 16 11 11 12 13 14 17 20 22 27 30 26 33 59 91 99
10 10 10 10 10 10 11 11 9 8 6 5 6 18 24 23 28 33 34 36 36 34 36 34 15 5 10 17 14 12 12 13 14 16 18 22 26 26 25 33 43 58 59
11 11 10 10 10 10 11 11 11 9 7 9 18 22 21 22 22 28 36 37 36 36 39 42 22 5 7 18 15 14 13 14 15 15 19 24 26 24 26 33 36 37 35
11 11 11 11 11 12 13 13 11 11 13 16 19 23 27 31 27 32 39 36 33 32 34 43 32 6 5 18 18 17 16 15 17 21 22 22 25 24 21 23 28 28 29
12 12 13 14 14 14 14 14 13 17 24 27 28 30 32 32 33 39 38 32 30 30 34 46 42 10 4 17 17 17 19 18 18 24 26 24 24 25 24 21 18 16 17
12 12 11 13 16 15 16 15 18 25 26 30 34 36 36 39 42 41 40 37 33 32 39 49 50 16 5 14 16 15 18 20 22 21 26 24 22 22 23 24 24 21 18
11 10 9 14 16 17 17 18 24 25 31 36 37 38 41 42 43 43 41 36 33 33 43 52 54 27 8 7 17 14 13 18 21 21 22 23 23 24 23 23 21 19 19
10 9 10 14 16 19 19 18 23 25 30 34 36 39 42 43 44 43 39 32 28 32 42 51 55 49 11 5 8 12 12 14 17 19 20 22 23 23 23 24 25 24 23
9 10 11 13 20 22 20 16 17 18 28 34 38 43 45 46 47 44 38 26 23 31 42 50 55 55 22 9 4 6 9 11 14 18 21 24 25 26 27 24 22 18 16
9 12 15 20 24 24 22 16 14 18 29 38 41 46 47 46 42 40 36 22 24 34 43 51 54 56 53 14 9 5 5 7 10 13 16 21 24 24 23 21 19 18 17
10 12 17 22 26 27 25 16 17 25 36 38 41 43 40 33 31 37 33 23 24 34 43 50 53 56 59 56 23 10 7 6 6 9 10 11 14 18 20 20 18 17 16
10 15 18 22 25 25 24 19 24 34 38 37 35 32 31 30 30 32 31 29 23 27 37 46 52 57 60 62 62 55 24 11 8 7 7 9 9 10 11 13 15 15 15

GFSSE_700_rhum_210.txt.gz
RH
8 8 8 8 8 9 10 11 11 10 11 11 11 12 13 14 15 16 17 18 19 30 39 50 52 52 51 45 55 62 64 64 58 60 57 50 45 32 16 17 54 15 12
8 7 7 8 9 10 10 9 9 8 8 8 9 9 10 10 10 11 12 13 14 15 16 17 19 22 41 60 64 51 62 66 72 66 65 64 56 46 37 18 14 12 11
7 7 8 8 9 9 8 7 7 7 7 8 8 7 7 8 8 8 8 8 8 9 9 10 10 12 14 17 25 43 63 64 59 71 71 69 66 61 49 44 22 18 59
8 8 8 9 9 8 7 7 7 7 7 6 6 6 7 7 8 8 8 8 8 8 7 8 8 8 8 9 11 14 20 57 61 60 66 71 75 72 64 69 60 57 68
8 8 9 9 9 8 7 7 7 7 6 6 7 8 9 10 10 10 10 9 8 8 8 8 8 8 8 9 9 9 10 13 25 57 57 60 70 79 77 67 58 59 60
9 9 9 9 8 7 7 7 7 6 6 7 9 8 7 7 6 6 5 5 5 6 8 8 7 7 7 7 7 7 8 9 11 14 31 60 62 73 80 80 68 51 68
9 9 9 9 8 7 7 7 7 6 7 9 10 7 5 4 4 4 5 5 6 8 8 7 6 6 7 8 8 8 8 8 7 9 12 17 47 63 68 83 80 66 60
9 9 9 9 8 7 7 7 7 6 8 10 8 4 4 4 4 4 5 6 7 7 5 5 6 9 9 9 9 9 9 9 10 9 9 9 13 21 37 64 89 84 73
9 10 9 8 8 8 8 7 7 7 10 10 6 4 4 4 4 5 6 6 5 4 4 5 8 11 11 11 10 10 9 9 8 8 8 10 10 11 14 26 78 99 85
10 10 9 8 8 8 8 7 7 8 10 8 4 4 4 4 5 5 5 4 4 4 4 5 7 11 14 14 13 12 10 8 7 8 9 9 9 10 12 13 22 82 100
10 10 10 9 9 8 8 8 8 9 9 6 4 4 4 4 4 3 4 6 7 8 9 8 6 8 11 15 16 14 11 8 9 9 8 9 8 8 10 12 15 38 93
9 10 10 9 9 8 8 8 9 9 8 6 5 4 4 3 3 5 10 19 25 26 26 24 18 11 7 8 15 15 10 8 9 12 14 14 14 14 11 9 13 18 64
9 10 10 10 9 9 8 8 8 9 8 7 6 5 4 3 5 14 24 28 30 31 32 32 32 26 14 6 9 15 10 9 12 14 14 11 11 13 15 13 11 15 30
10 10 10 10 9 9 9 8 9 9 9 8 7 5 4 5 15 24 25 30 34 34 34 34 33 32 22 7 8 15 12 10 12 13 11 12 14 16 19 20 17 19 21
11 11 10 10 10 10 9 9 10 10 10 9 8 6 6 15 24 23 26 30 34 36 35 34 33 34 32 8 7 14 13 10 11 11 12 13 15 17 21 24 27 28 33
11 10 10 10 10 10 10 11 11 11 11 10 8 8 13 20 20 20 23 25 33 36 34 32 30 33 35 10 6 14 16 12 11 11 12 14 16 18 21 23 28 27 28
10 10 11 11 11 11 11 12 12 12 12 11 12 16 19 23 27 30 31 33 38 36 31 28 27 29 37 15 5 14 17 14 14 12 13 15 19 23 23 22 27 36 34
10 11 11 12 11 12 13 14 13 14 14 17 24 28 30 32 33 33 35 41 40 37 34 31 29 36 44 19 4 15 17 16 15 14 15 17 22 26 24 21 22 32 41
10 11 12 12 11 12 14 14 15 15 18 22 26 32 35 36 38 41 43 43 42 40 37 33 32 38 49 19 5 13 17 16 16 17 19 20 23 26 26 26 21 22 22
11 12 12 10 9 11 15 16 17 18 20 25 32 32 30 34 40 43 44 43 42 39 33 30 34 42 49 32 6 8 17 14 17 19 20 22 22 24 26 27 27 24 20
13 12 10 9 9 13 15 18 18 18 20 19 23 30 34 35 41 44 45 45 42 35 27 27 37 49 54 46 11 5 13 14 14 17 19 21 22 23 23 24 24 24 23
14 10 9 9 10 13 16 19 19 18 17 18 24 30 37 39 43 45 45 42 37 30 21 28 41 51 54 54 17 7 5 9 12 15 18 20 22 23 24 26 27 26 26
11 10 9 9 11 14 19 22 21 17 15 16 24 32 35 34 40 41 36 34 35 22 23 33 45 51 54 56 45 11 6 5 8 12 16 20 22 24 26 27 26 26 23
9 8 9 11 15 18 22 25 24 18 15 21 31 35 38 36 35 31 30 31 32 24 22 32 43 49 53 55 57 44 12 8 6 7 10 13 18 23 25 25 23 20 20
7 9 11 14 17 20 22 23 23 18 20 28 31 29 28 28 29 29 31 32 30 28 24 25 34 44 50 54 58 60 58 26 11 7 7 9 10 12 15 21 21 20 19
9 10 11 15 17 20 22 24 24 22 25 34 29 28 27 27 29 30 30 30 30 29 29 26 26 31 38 48 53 60 62 60 57 30 12 8 7 9 10 10 12 15 17

GFSSE_700_rhum_213.txt.gz
RH
8 8 8 8 9 9 10 10 10 10 9 9 9 9 9 10 11 11 12 14 15 17 17 19 25 34 57 63 71 60 55 70 64 63 57 60 56 46 37 21 17 29 12
8 8 8 8 9 9 9 8 8 8 8 8 7 7 7 7 8 8 8 9 9 11 11 12 13 14 15 17 26 50 67 64 53 52 63 63 61 61 50 39 23 17 15
8 8 8 8 9 8 8 7 7 7 7 6 6 6 6 7 8 8 8 8 7 8 8 8 8 8 8 9 10 12 16 40 68 68 57 60 67 66 65 55 48 29 22
8 8 8 8 8 7 7 7 7 7 6 6 6 7 8 9 9 9 10 10 9 8 8 7 8 8 8 8 9 9 10 11 15 43 61 58 60 67 70 67 71 79 62
8 8 8 8 8 7 7 7 7 6 6 6 7 8 8 6 5 5 6 6 5 5 5 6 7 7 7 7 7 7 8 9 11 12 16 25 59 56 67 77 71 67 76
9 8 8 8 8 7 7 7 7 6 6 6 8 8 6 4 4 4 4 4 5 5 6 7 7 6 6 6 7 8 8 8 7 8 9 12 15 50 64 63 80 78 61
9 9 9 8 8 7 7 7 7 6 6 6 8 8 4 3 3 3 3 4 4 6 8 7 5 4 5 7 8 8 8 9 9 8 8 8 9 13 26 62 70 82 85
9 9 9 8 8 8 8 7 7 7 6 7 8 7 4 3 3 3 4 4 5 5 5 4 5 5 6 8 9 9 10 9 9 9 9 10 10 9 9 13 35 61 88
9 9 9 9 8 8 8 8 7 7 7 7 7 6 4 4 4 3 4 4 4 4 4 5 5 6 7 8 10 10 11 10 10 9 8 7 7 8 9 10 10 16 56
10 10 9 9 9 8 8 8 8 7 7 8 7 6 5 4 4 3 3 3 5 8 11 13 13 11 9 8 9 10 13 13 12 9 7 9 9 9 9 9 9 10 12
10 10 10 9 9 9 8 8 8 8 8 8 8 7 6 5 4 3 3 6 14 22 26 28 28 28 26 20 12 8 10 14 14 8 9 9 12 13 13 13 10 8 9
10 10 10 10 10 9 9 9 8 8 9 8 8 8 7 6 4 4 6 18 26 28 30 31 32 33 32 30 23 13 6 12 14 8 9 13 13 12 10 10 10 12 10
10 10 10 10 10 10 9 9 8 9 9 9 9 9 8 6 5 5 12 20 24 27 30 32 33 32 31 31 30 22 7 10 14 9 10 13 12 10 10 10 10 11 12
9 10 10 10 10 10 10 9 9 9 9 10 10 10 9 7 7 13 20 21 22 23 28 32 34 32 31 31 32 26 7 10 14 10 10 11 10 11 11 13 13 14 14
10 10 11 10 10 10 10 9 9 10 10 10 11 11 10 11 15 18 20 22 26 27 35 37 33 29 27 26 30 30 7 9 15 11 10 10 11 11 12 14 16 17 18
11 11 11 10 11 11 10 10 11 11 11 11 12 12 13 17 20 24 27 28 30 34 38 36 33 31 29 29 35 29 6 9 16 12 10 10 11 12 13 15 17 20 23
11 11 10 11 11 11 11 11 12 12 12 13 14 17 19 21 24 28 32 33 36 39 40 40 38 35 30 33 39 29 5 13 17 14 12 13 13 15 16 19 20 22 23
11 10 11 11 11 11 11 11 12 13 14 14 18 21 23 27 31 33 35 38 40 41 41 41 37 32 34 39 46 27 5 15 16 16 16 15 15 18 19 21 25 28 26
11 10 11 12 12 11 10 11 13 14 14 17 20 21 21 22 25 30 34 37 39 42 42 39 32 28 35 45 51 29 6 13 17 15 17 17 18 20 22 23 26 29 31
10 10 12 12 11 9 9 12 12 15 17 18 18 17 18 23 29 32 38 41 42 43 40 34 25 26 36 47 53 36 8 7 15 14 16 18 19 21 22 23 24 26 26
10 11 12 12 9 9 10 12 14 18 18 17 14 12 19 24 30 32 35 39 39 36 33 27 21 30 43 52 54 45 13 5 7 12 14 18 19 21 23 23 24 25 25
11 12 13 9 9 9 11 14 18 20 19 16 13 15 24 28 27 31 31 31 28 27 30 20 22 34 44 52 56 53 22 9 5 7 12 17 20 22 23 25 27 28 29
10 14 9 9 9 11 13 17 20 22 20 16 15 21 29 25 25 24 25 26 27 28 28 23 23 34 43 50 54 56 46 18 9 6 7 11 15 21 25 27 27 26 25
10 8 9 8 10 12 17 20 23 23 22 18 21 33 29 26 24 23 25 26 27 28 29 28 25 30 40 47 52 56 59 57 25 10 7 6 10 12 16 22 25 24 22
6 7 8 9 11 14 19 22 24 24 24 22 26 33 27 25 24 23 24 27 28 28 28 28 28 28 33 42 50 55 58 60 60 48 17 9 7 8 10 11 14 20 21
13 10 10 10 14 19 22 23 24 26 28 27 32 32 28 26 26 25 26 28 29 29 28 28 28 29 30 33 40 47 54 59 60 62 61 49 26 12 8 8 10 10 11

GFSSE_700_rhum_219.txt.gz
RH
7 7 7 8 8 8 7 7 7 7 7 6 6 6 6 6 6 7 7 8 8 8 8 9 10 10 11 10 12 13 15 37 58 65 61 52 59 62 59 54 40 27 27
7 7 8 8 9 8 7 7 7 7 6 6 6 6 7 7 7 6 6 7 9 9 8 7 7 7 7 7 7 7 7 10 11 14 41 72 63 58 64 63 61 49 37
8 8 8 8 8 8 7 7 7 7 6 6 6 7 8 8 6 4 4 4 6 7 8 8 7 7 7 7 6 7 7 7 8 8 9 13 20 57 57 62 66 66 62
8 8 8 8 8 8 7 7 7 7 7 6 6 7 7 7 4 3 3 3 3 4 4 4 5 5 6 7 7 6 6 6 6 6 7 8 10 13 38 53 60 68 68
8 8 8 8 8 8 7 8 8 7 7 7 7 7 7 6 4 4 4 3 3 3 3 4 4 5 6 6 5 4 5 6 6 6 6 6 7 8 10 16 42 53 65
9 9 9 9 9 8 8 8 8 8 7 7 7 8 8 6 5 4 4 3 4 4 4 4 4 5 4 4 4 6 7 7 8 7 8 8 8 7 8 8 12 44 57
9 9 9 9 9 8 8 8 8 8 8 8 7 7 7 7 6 6 4 4 3 4 4 4 4 4 4 6 7 8 10 10 10 9 9 9 9 9 9 8 8 9 28
9 9 10 9 9 9 9 9 9 8 8 8 7 7 7 7 7 7 6 4 4 3 3 4 6 9 11 12 11 11 10 10 10 11 11 11 10 9 9 8 8 9 9
9 9 9 10 9 9 9 10 9 9 8 8 7 7 8 8 8 8 7 5 4 3 5 11 18 23 24 26 26 26 25 22 17 13 11 11 12 11 8 7 7 8 8
9 9 10 10 9 10 10 10 9 9 9 8 8 8 8 8 8 8 8 6 5 6 12 19 22 24 26 27 27 27 28 28 26 22 14 10 12 12 8 9 9 11 10
9 10 10 10 9 10 10 10 10 10 9 8 8 9 9 9 9 9 8 7 7 10 16 20 22 24 26 28 30 30 31 30 29 26 19 10 12 12 8 10 12 11 10
10 10 11 10 9 10 11 10 10 10 9 8 9 10 10 10 10 9 9 9 11 13 15 17 18 20 24 28 30 30 28 27 28 29 20 9 12 12 9 11 12 11 9
9 11 11 10 10 11 11 11 10 10 9 9 10 10 10 10 10 10 10 12 14 16 18 19 21 25 29 31 32 31 30 25 24 27 19 8 13 13 9 10 11 10 9
10 11 11 10 10 11 11 11 10 9 10 10 10 10 9 10 11 12 13 14 16 18 21 26 29 32 35 36 36 34 29 24 27 28 14 7 14 12 9 9 9 9 9
12 11 11 11 12 11 11 11 10 9 10 10 10 9 10 10 12 14 15 16 16 17 20 24 28 31 33 35 35 32 26 27 32 25 8 11 15 11 10 9 9 9 9
11 11 12 12 12 12 11 11 9 9 9 9 9 9 10 12 14 14 14 14 18 22 24 25 27 29 34 36 34 26 26 30 36 16 7 15 15 13 11 11 10 10 11
12 13 13 13 12 11 11 10 10 10 8 8 9 9 11 14 14 12 12 18 23 24 27 31 35 35 32 31 26 24 28 36 37 10 11 16 16 14 14 13 12 14 15
14 13 13 13 12 11 11 10 10 9 8 9 10 11 13 14 11 11 16 22 22 23 25 28 28 28 27 24 21 26 33 42 36 9 11 17 16 16 15 15 16 17 17
14 14 13 12 12 12 12 11 11 8 8 9 10 13 14 12 10 17 22 20 20 22 23 24 23 24 23 17 23 33 42 46 33 9 6 15 16 15 16 17 18 19 19
15 14 15 17 17 14 11 11 10 8 8 10 12 14 15 10 15 22 20 20 20 20 22 22 22 23 19 17 29 38 44 48 37 12 5 7 12 15 17 18 20 21 21
14 18 23 23 15 12 11 12 9 8 10 11 14 16 13 13 20 21 19 18 19 20 21 22 22 24 21 18 22 35 42 48 45 21 7 5 7 12 16 19 20 23 24
30 27 22 13 11 11 12 12 8 8 10 13 16 15 15 18 22 22 20 20 20 20 21 23 23 23 23 22 20 27 39 36 49 49 31 10 6 6 12 17 20 23 25
19 15 11 9 10 12 13 10 8 10 12 15 16 17 19 21 24 22 21 20 21 21 22 23 23 23 24 25 24 24 31 38 44 48 53 45 19 7 6 11 15 20 23
20 15 10 9 11 13 10 8 10 12 15 16 19 21 22 23 24 23 23 22 22 22 22 22 23 24 24 24 26 27 27 31 37 43 39 52 53 44 13 6 9 12 15
8 7 7 8 12 10 9 10 12 15 17 21 22 24 25 23 25 26 25 24 24 23 22 22 23 24 24 25 25 26 27 28 30 34 39 42 46 53 55 48 15 7 10
8 7 8 10 11 12 12 12 15 19 22 24 25 28 26 23 25 28 27 28 27 25 23 22 23 24 25 25 25 26 28 29 30 30 31 32 34 40 46 50 56 57 30

GFSSE_700_rhum_222.txt.gz
RH
7 7 7 8 8 7 7 6 6 6 6 6 6 6 6 6 6 5 4 4 5 6 7 7 7 7 7 7 7 7 8 9 10 14 42 61 59 49 56 62 58 52 37
7 7 7 8 8 7 7 7 7 7 7 6 6 6 7 7 6 4 3 3 3 4 5 6 6 6 6 6 6 6 6 6 6 7 8 11 32 53 56 57 63 60 58
7 7 8 8 8 7 7 7 7 7 7 7 7 7 7 7 5 4 3 3 3 3 3 4 4 4 4 5 5 6 5 5 5 6 6 7 7 9 20 40 51 56 61
8 8 8 8 8 8 7 8 8 8 8 7 7 7 7 6 6 5 4 3 3 3 3 3 3 3 4 4 5 5 5 4 4 5 5 5 6 5 7 11 28 41 54
8 8 8 8 8 8 8 8 8 8 8 8 7 7 6 6 6 6 5 4 3 3 3 3 3 4 4 4 4 4 4 5 5 6 6 7 7 6 7 8 12 15 34
8 9 9 9 8 8 8 8 9 9 8 8 7 7 6 6 6 6 6 6 5 4 3 3 4 4 4 4 4 5 6 7 8 8 8 8 8 8 8 8 8 8 29
9 9 9 9 9 9 8 9 9 9 8 9 8 7 6 7 7 7 7 7 6 5 3 3 3 5 7 10 12 12 11 10 10 10 10 10 10 10 9 9 9 9 8
9 9 9 9 9 9 9 9 10 9 9 9 8 7 7 7 7 7 8 8 7 6 4 4 6 11 17 21 23 24 24 23 21 19 16 14 12 12 11 10 9 8 8
8 9 9 9 9 9 9 10 10 10 10 10 9 7 7 8 8 8 8 8 8 7 6 7 10 14 17 20 23 25 26 26 27 26 23 21 14 12 12 12 8 7 8
8 9 9 9 9 9 10 11 11 10 10 10 8 8 8 9 9 9 8 8 8 7 8 11 14 16 18 19 21 24 27 28 29 29 28 25 17 12 12 12 8 9 10
9 9 8 9 9 8 10 11 11 11 10 9 8 8 9 9 8 8 8 8 8 9 10 11 13 15 18 19 24 26 27 28 27 26 24 26 22 12 12 12 9 10 12
9 8 9 10 9 9 11 11 11 11 10 8 8 8 9 8 7 7 8 10 11 12 13 14 16 20 23 26 28 30 30 30 29 25 21 23 22 10 12 13 9 10 12
9 9 9 11 10 10 11 12 12 11 9 8 8 8 8 7 7 8 9 10 12 13 14 16 19 22 25 28 29 29 30 31 27 22 22 25 18 9 13 13 9 9 11
10 9 10 11 10 11 12 12 11 11 9 8 8 7 7 7 8 9 10 11 11 10 12 14 17 20 23 25 28 31 31 29 24 25 28 23 10 10 14 11 9 9 9
9 10 12 11 12 12 12 12 12 10 9 8 7 7 7 8 9 11 11 9 10 15 18 20 22 25 28 31 32 31 27 23 24 30 30 12 9 15 14 11 10 9 9
12 11 11 12 13 13 13 12 11 10 9 9 7 7 8 9 11 12 9 9 14 18 19 20 20 22 24 26 26 25 22 24 30 34 24 8 13 16 14 12 11 10 10
12 11 13 14 13 14 13 12 12 11 10 8 7 8 9 10 12 10 9 16 18 17 17 18 20 20 21 22 22 18 19 26 35 38 20 8 16 16 16 15 13 13 13
12 14 14 14 14 14 13 14 14 11 10 8 7 8 9 11 12 9 15 19 17 18 17 18 19 20 20 20 16 18 26 38 43 38 17 7 15 17 16 15 15 14 14
14 14 14 14 14 14 18 18 13 11 10 7 7 8 10 12 10 12 20 18 17 16 16 18 19 19 20 20 16 20 29 39 46 41 20 6 8 14 14 16 16 16 18
14 14 15 14 14 20 23 16 12 11 10 7 8 9 11 12 11 17 20 18 17 16 17 17 18 19 21 21 18 19 29 36 45 44 29 11 5 6 11 16 17 17 20
16 17 16 18 24 25 20 14 12 12 9 8 8 10 13 13 14 20 19 18 17 16 18 18 18 19 20 21 21 20 21 34 39 46 48 38 14 6 6 11 17 19 19
18 20 26 29 27 19 14 12 12 12 8 8 9 12 14 16 19 21 20 19 18 16 18 19 19 19 20 20 21 22 21 22 27 39 48 50 46 23 8 6 11 16 19
22 24 21 18 16 13 12 13 13 10 9 9 11 13 17 21 22 21 21 20 19 18 18 20 20 20 20 21 21 22 23 23 22 26 33 41 49 52 46 18 7 9 12
21 22 21 18 12 11 12 14 11 10 10 12 13 17 21 23 24 21 22 22 20 19 19 20 21 20 21 22 23 24 24 24 24 24 24 25 31 41 47 54 51 24 8
22 13 8 8 8 10 12 13 11 12 12 14 18 21 23 24 26 21 20 23 24 23 22 22 22 21 22 22 23 24 25 26 26 25 26 25 26 25 30 34 40 53 58
7 8 8 7 8 11 14 13 12 14 18 20 22 22 24 26 26 22 23 25 27 28 27 27 26 23 22 22 23 24 24 25 25 25 25 25 25 26 28 28 30 30 34

GFSSE_700_rhum_228.txt.gz
RH
6 7 8 7 7 7 7 8 8 8 8 8 8 7 7 6 6 5 4 4 3 3 3 4 4 5 5 5 5 5 5 5 6 6 6 7 10 32 46 44 44 44 47
6 7 7 8 7 7 8 8 9 9 9 8 8 7 6 6 6 6 5 5 4 3 3 3 3 3 4 4 5 5 6 6 6 6 6 7 7 9 13 23 28 47 47
6 7 8 8 8 7 8 9 9 10 9 9 9 8 6 6 6 6 6 6 5 4 3 3 3 3 3 4 4 4 6 6 6 6 5 6 6 7 8 9 10 18 38
7 7 8 8 8 8 8 9 10 10 10 11 10 8 7 6 6 6 6 7 6 6 5 4 3 3 4 4 5 5 5 4 4 5 6 6 7 6 7 7 8 13 22
7 8 8 8 8 8 8 10 11 11 11 11 11 9 7 6 6 7 7 7 7 7 6 6 4 4 3 3 4 5 6 7 8 8 8 8 9 9 8 8 8 14 30
8 8 8 8 8 8 9 10 11 11 12 12 11 8 6 6 7 7 7 7 7 7 7 6 6 5 6 7 9 13 16 17 16 14 12 11 11 10 10 10 10 10 10
8 9 9 9 8 8 9 10 11 12 13 12 11 7 6 7 6 6 6 6 5 6 6 6 7 7 8 8 10 12 14 17 20 22 23 21 17 14 13 12 11 10 10
11 9 9 9 9 8 9 11 12 13 14 13 10 7 7 6 5 4 4 5 5 5 6 6 6 7 8 9 10 10 12 14 18 21 24 26 26 24 21 18 15 13 12
16 9 9 9 9 8 9 11 12 13 14 13 9 9 8 6 4 4 4 4 5 5 6 7 7 8 8 9 10 11 13 15 17 22 24 27 28 27 26 24 20 14 13
13 9 9 8 9 9 8 11 12 14 14 12 10 11 9 6 4 4 4 5 5 6 6 7 7 8 8 10 11 12 15 18 21 24 26 27 27 27 27 24 20 15 13
9 9 9 9 9 9 9 12 13 14 14 12 14 13 9 6 4 5 5 5 6 6 6 6 6 7 8 9 10 14 17 20 23 26 28 29 28 25 23 24 18 12 13
10 9 9 9 9 10 10 12 14 14 14 13 17 11 8 5 5 5 5 6 6 6 7 10 13 14 15 15 16 16 17 18 20 22 24 24 22 23 24 22 16 12 13
12 10 9 9 9 10 11 13 15 15 14 17 15 9 7 5 4 5 6 7 5 8 12 13 14 14 15 16 16 18 18 19 20 20 19 19 22 26 24 17 11 12 13
11 10 10 10 10 11 13 14 15 15 16 19 14 10 7 5 5 6 6 6 7 13 13 13 13 14 15 15 16 18 18 19 18 19 21 23 27 25 16 10 12 14 13
11 12 12 9 10 12 14 16 16 15 19 19 13 9 7 5 5 6 6 6 12 13 13 13 13 14 14 15 16 17 16 16 18 20 23 26 27 18 10 13 15 14 12
17 15 11 11 11 14 14 16 16 17 21 19 13 10 7 5 6 7 6 8 15 13 12 12 13 14 15 15 15 16 14 18 27 27 26 28 24 13 12 15 16 15 14
16 15 13 12 13 14 15 16 16 19 23 20 12 10 7 6 6 8 7 11 16 13 12 12 13 14 14 15 15 15 14 18 26 30 31 31 21 10 10 14 16 15 15
14 15 15 13 14 15 15 16 16 20 24 21 12 10 7 6 7 8 9 15 16 13 12 12 13 14 15 16 16 16 16 16 22 28 32 34 26 12 6 8 12 13 14
14 14 14 14 15 15 16 16 16 23 25 20 12 11 7 7 8 9 11 18 15 13 12 12 13 16 16 16 17 17 17 17 17 21 29 34 38 34 19 7 5 8 13
10 12 14 14 14 15 16 17 24 28 26 18 13 11 7 8 10 10 16 18 14 12 12 12 12 15 17 17 17 17 18 18 18 19 23 25 31 37 39 33 16 6 7
9 11 14 15 15 17 18 24 27 27 23 16 12 9 8 9 11 13 18 19 14 13 12 12 13 13 15 16 17 18 18 18 19 18 19 20 22 25 32 38 40 35 12
11 13 14 16 19 19 23 25 25 23 19 14 12 9 10 12 13 18 19 19 16 13 12 12 13 14 15 15 16 17 18 19 20 19 20 20 20 21 22 24 28 37 44
13 15 17 19 23 25 23 22 22 19 15 13 11 10 12 14 17 20 18 19 18 14 14 14 15 15 15 15 15 16 17 18 18 19 20 21 22 22 22 22 22 22 24
14 14 17 22 22 22 22 20 18 16 13 13 11 13 13 16 20 18 18 19 18 16 16 16 16 18 18 19 19 18 18 18 18 19 19 20 21 23 23 23 22 23 23
14 16 21 22 23 23 21 17 13 13 13 12 14 13 17 19 18 18 18 19 18 19 21 22 23 23 23 24 24 24 22 22 21 20 20 20 20 21 22 22 22 22 23
16 19 22 23 20 13 9 10 11 13 14 14 16 16 16 16 16 17 18 20 22 23 26 29 30 30 28 28 30 32 31 28 26 24 23 23 23 24 25 27 28 28 28

GFSSE_700_rhum_231.txt.gz
RH
6 6 7 7 7 7 8 8 9 9 9 8 8 7 6 6 6 6 6 5 4 3 3 3 3 4 5 6 6 6 6 6 6 7 7 8 9 13 27 37 39 43 60
6 7 7 7 7 8 8 9 10 9 9 10 9 8 7 6 6 6 6 6 6 5 4 3 3 3 3 3 4 5 5 5 6 6 6 6 6 7 8 9 16 27 39
6 7 7 7 8 8 9 10 10 10 12 12 10 8 7 6 6 6 6 6 6 6 6 5 4 3 3 3 3 4 4 5 5 5 4 5 5 6 6 6 7 9 16
6 7 8 8 8 8 10 10 11 12 13 13 11 8 6 6 6 7 7 7 7 7 7 6 5 4 3 3 3 4 4 4 4 5 6 7 7 6 6 7 7 7 10
7 7 8 8 8 8 10 11 12 14 14 13 11 7 7 7 7 6 6 6 6 6 6 6 6 6 5 6 6 7 8 10 11 11 11 10 10 9 9 8 8 8 12
7 8 8 8 8 9 10 11 12 14 15 14 10 8 9 8 6 5 4 4 5 5 5 5 6 6 7 7 8 10 10 11 13 16 18 18 16 13 12 11 10 10 10
8 8 8 8 9 8 10 11 12 14 15 14 9 11 12 9 6 4 4 4 4 4 5 5 5 6 6 7 8 8 10 11 13 16 18 20 22 23 21 18 14 13 12
8 8 9 9 9 9 9 11 12 14 15 13 11 16 16 11 6 4 4 4 4 4 5 5 6 6 7 7 8 8 9 11 12 14 17 20 22 24 26 25 22 19 16
9 9 9 9 9 9 9 11 12 14 16 13 14 18 15 11 6 4 4 4 5 5 6 6 6 6 7 8 8 10 12 14 15 18 21 24 25 25 26 27 26 22 17
18 10 9 9 9 9 9 11 12 15 15 13 18 17 10 7 5 4 4 5 5 6 5 5 5 6 7 7 8 9 10 12 16 17 20 23 24 26 26 25 24 24 19
21 12 9 9 9 9 9 11 13 15 15 15 19 15 10 6 5 4 5 6 5 5 5 8 10 11 11 12 12 13 15 16 16 17 18 21 23 23 23 22 22 22 19
22 11 9 10 9 10 10 11 14 16 15 18 18 14 11 6 4 5 6 6 5 6 11 12 12 12 12 13 13 14 16 17 19 19 19 20 20 20 22 23 22 20 14
14 11 10 10 9 10 10 13 14 16 15 19 18 14 11 7 5 5 6 6 6 11 12 12 11 11 12 13 14 14 15 17 18 18 18 19 19 22 24 23 17 12 12
15 11 10 10 10 11 12 14 15 16 16 20 18 15 12 8 5 5 6 6 8 12 12 12 11 11 12 13 14 14 14 14 16 17 19 21 23 25 23 17 12 13 14
16 14 11 10 10 12 13 14 16 16 18 21 19 16 13 10 5 6 7 7 11 13 12 10 11 12 13 13 14 14 14 14 16 20 24 26 27 24 16 12 13 15 14
13 14 15 13 12 13 14 15 16 16 20 22 22 17 14 11 6 6 7 7 13 13 11 11 12 12 13 14 14 14 14 14 16 23 27 28 27 22 13 12 15 16 16
19 20 18 13 13 13 15 15 16 17 20 23 23 18 14 11 6 7 8 8 15 13 11 11 11 13 14 14 15 15 15 14 15 18 25 29 29 24 14 8 10 15 15
16 18 17 14 14 13 15 16 16 17 19 24 23 19 14 11 6 7 8 10 16 13 11 11 11 12 15 16 15 15 15 16 16 17 20 25 30 33 26 14 6 6 8
17 17 17 16 14 15 16 16 16 16 23 25 23 20 15 10 7 8 9 13 17 14 11 10 12 12 14 16 16 16 16 16 16 17 18 20 22 27 34 36 23 10 6
15 16 17 16 14 15 16 16 17 20 25 26 23 19 14 9 8 10 11 16 18 14 11 10 11 12 13 15 16 16 16 16 17 17 18 18 19 20 22 30 38 39 29
14 13 15 15 15 16 16 17 18 23 25 25 22 17 12 8 9 11 13 18 17 16 13 11 11 12 12 13 14 15 16 16 16 17 17 18 18 18 19 20 22 28 35
13 12 12 14 15 16 17 19 20 25 25 24 20 16 11 8 10 12 16 18 17 17 14 12 11 11 12 13 13 14 16 17 18 18 19 18 18 18 19 19 20 20 21
13 12 13 15 15 18 20 21 26 25 24 22 18 13 10 10 13 13 19 17 15 15 14 13 12 12 12 13 14 15 16 16 17 18 18 18 19 19 19 19 20 21 22
16 14 14 16 18 20 24 26 24 24 22 19 16 13 10 13 14 18 17 14 14 14 13 14 14 15 16 17 16 17 18 18 18 19 19 19 19 19 19 20 20 21 22
21 18 16 16 17 22 23 22 22 22 20 16 15 12 14 14 17 16 14 13 14 15 16 17 18 20 21 21 21 20 20 21 22 22 22 22 21 22 22 22 22 23 23
26 21 18 17 20 22 22 22 19 16 14 16 15 14 14 17 14 13 13 14 15 16 18 20 21 23 25 27 28 28 26 26 28 28 28 27 27 28 27 27 28 27 27

GFSSE_700_rhum_234.txt.gz
RH
6 6 6 7 7 8 9 10 10 9 10 10 9 8 6 6 6 6 6 6 6 5 4 3 3 3 3 4 5 6 6 6 6 6 6 6 6 6 7 10 21 33 43
6 6 7 7 8 9 10 10 10 11 12 11 10 8 6 6 6 6 6 6 7 6 6 5 4 3 3 3 3 4 4 5 6 6 7 6 6 7 7 8 9 16 27
6 7 7 7 8 10 10 11 12 13 13 12 10 7 8 8 7 6 6 6 6 7 7 6 6 5 4 4 4 4 5 5 5 5 5 5 6 6 6 7 7 9 13
6 7 7 8 9 10 11 12 13 14 14 14 9 9 10 10 8 5 5 5 5 5 5 5 6 6 5 5 5 5 6 7 8 9 8 8 8 8 8 8 7 7 8
6 7 8 8 9 10 12 12 13 14 15 14 9 12 13 11 9 5 4 4 4 4 4 5 5 5 5 6 6 7 8 9 12 14 16 16 14 12 11 10 10 9 8
6 7 8 8 8 10 11 12 13 15 16 13 10 16 16 16 11 6 4 4 4 4 4 4 4 5 5 6 6 6 7 8 9 10 14 18 21 22 20 17 14 12 11
7 8 8 8 8 9 11 12 13 15 16 12 15 18 16 14 12 6 4 4 4 4 4 4 5 5 5 6 6 7 8 8 10 11 13 15 18 22 24 25 23 19 16
8 8 8 8 8 9 10 12 13 15 16 13 17 17 13 8 9 5 4 4 4 4 4 4 4 4 4 5 5 6 7 8 9 11 13 14 17 20 23 25 26 26 23
8 8 9 9 9 9 9 12 13 16 16 14 18 16 14 10 6 4 4 4 5 4 4 4 5 7 7 7 7 7 8 8 10 10 12 14 16 20 23 24 25 26 26
8 8 9 9 9 9 9 11 13 16 15 15 19 16 14 12 6 4 4 5 5 4 5 8 9 10 10 10 10 10 10 11 12 13 13 14 15 18 20 22 23 23 23
12 10 9 10 9 9 9 10 13 16 15 17 18 15 15 13 9 4 4 5 5 6 8 10 10 10 10 11 11 12 12 13 14 15 17 18 18 18 19 20 20 21 21
19 21 10 10 10 10 10 10 13 16 15 18 18 16 15 15 11 5 5 6 6 8 10 10 10 10 10 11 11 12 12 14 14 15 16 17 18 18 19 20 21 21 19
22 28 12 10 10 10 11 11 14 16 15 19 18 16 15 15 12 6 5 6 6 9 10 10 9 9 11 11 12 12 12 13 13 15 16 17 20 22 22 22 20 17 14
16 22 12 11 10 10 12 12 14 16 16 20 18 18 16 15 13 7 5 6 7 11 11 10 9 10 11 12 12 12 13 13 14 17 18 19 20 23 22 18 14 13 14
22 15 13 11 11 11 12 13 15 16 16 20 20 20 18 16 14 8 6 7 7 12 11 9 10 10 11 12 13 13 13 13 14 15 19 22 24 24 20 15 13 14 15
26 21 16 13 12 12 13 14 15 16 17 21 21 22 20 17 16 8 6 7 8 12 11 9 10 10 12 13 14 13 14 14 14 16 18 23 25 25 19 12 11 12 15
17 16 15 15 14 13 14 15 16 16 17 20 22 23 21 18 16 8 6 8 9 13 12 9 9 10 12 14 14 14 14 14 14 16 17 21 25 29 28 19 10 7 8
24 21 21 19 16 15 15 16 16 17 17 19 23 23 22 20 16 7 7 9 10 14 12 9 8 9 11 12 14 15 15 15 15 15 16 18 19 22 28 32 30 21 11
25 22 22 23 19 17 17 17 16 17 17 21 24 24 22 20 15 7 8 10 11 15 14 10 9 8 10 11 12 14 15 16 16 16 16 16 17 18 20 24 29 33 33
28 23 21 22 20 19 16 17 17 17 17 23 25 25 22 20 13 7 9 10 14 16 15 12 10 9 9 10 11 12 14 15 15 16 16 16 16 17 18 19 19 21 24
27 17 18 20 20 18 18 18 17 18 19 24 25 25 22 19 11 8 10 12 15 16 14 12 10 10 9 9 10 11 12 13 14 16 16 16 17 17 18 19 19 19 19
26 21 17 18 19 19 18 18 17 19 20 25 26 25 22 17 10 9 12 12 16 14 12 11 10 10 10 10 10 11 12 13 14 15 16 17 17 17 18 19 19 20 20
20 18 17 17 19 17 18 17 18 20 23 27 27 24 20 14 10 11 13 14 16 12 11 11 11 11 11 12 13 14 14 14 15 16 16 17 18 18 18 19 19 20 20
20 19 17 16 15 16 16 18 21 23 27 27 26 22 18 13 11 13 14 16 12 12 12 13 14 15 16 17 17 18 17 17 17 19 19 20 20 20 20 20 21 22 22
21 19 18 16 16 16 19 20 23 27 27 27 25 21 15 13 14 14 16 14 12 12 13 14 15 16 17 19 20 21 21 21 21 21 24 26 25 24 24 25 25 26 27
23 23 22 20 17 17 18 21 26 25 24 25 22 17 16 14 15 16 14 12 13 13 14 15 16 18 20 22 25 27 28 28 27 26 26 28 31 33 32 33 35 39 40